[ hide orbit diagram ]
For accurate long-term ephemerides, please instead use our Horizons system.This orbit viewer was implemented using two-body methods, and hence should not be used for determining accurate long-term trajectories (over several years or decades) or planetary encounter circumstances.
Orbital Elements at Epoch 2459000.5 (2020-May-31.0) TDB
Reference: JPL 7 (heliocentric ecliptic J2000)
Element | Value | Uncertainty (1-sigma) | Units |
e | .6709092202741072 | 3.4265e-05 | |
a | 118.3858478630557 | 0.013051 | au |
q | 38.95969098176393 | 0.00029225 | au |
i | 29.62831654479691 | 6.8985e-05 | deg |
node | 27.88590401700977 | 6.126e-05 | deg |
peri | 169.6156469911526 | 0.0019996 | deg |
M | 359.2567772774734 | 0.00031035 | deg |
tp | 2459971.825048033684 (2023-Jan-27.32504803) | 0.37299 | TDB |
period | 470487.5223719951 1288.12 | 77.799 0.213 | d yr |
n | .0007651637564903641 | 1.2653e-07 | deg/d |
Q | 197.8120047443475 | 0.021807 | au |
|
| | Orbit Determination Parameters
Additional Information
|
[ show covariance matrix ]
523778 (2014 YK50) Discovered 2011-Jan-27 by Pan-STARRS 1 at Haleakala |
Reference: | Last Updated: 2018-10-01 |
|
|